Location: Newark
(48.1500°N, 2.9667°W)
Time: 07:52:05
(UTC+00:00)

Altair - Pass Details

Date: 27 January 2020
Orbit: 1502 x 1682 km, 47.2° (Epoch: 17 February)

Event Time Altitude Azimuth Distance (km) Brightness Sun altitude
Rises 11:02:31 0° 267° (W) 4,912 10.0 20.8°
Reaches altitude 10° 11:05:39 10° 267° (W) 3,935 9.5 21.0°
Maximum altitude 11:15:51 86° 180° (S) 1,689 8.2 21.6°
Drops below altitude 10° 11:26:00 10° 94° (E) 3,915 9.9 22.1°
Sets 11:29:07 0° 94° (E) 4,885 10.4 22.2°
